Regional Weather Roundup
Issued by NWS Cleveland, OH

Home | Current Version | Previous Version | Graphics & Text | Print | Product List | Glossary On
Versions: 1 2 3 4 5 6 7 8 9 10 11 12 13 14 15 16 17 18 19 20 21 22 23 24 25 26 27 28 29 30 31 32 33 34 35 36 37 38 39 40 41 42 43 44 45 46 47 48 49 50
000
ASUS41 KCLE 242110
RWRCLE
OHIO REGIONAL WEATHER ROUNDUP
NATIONAL WEATHER SERVICE WILMINGTON, OH
500 PM EDT THU JUL 24 2014

NOTE: "FAIR" INDICATES FEW OR NO CLOUDS BELOW 12,000 FEET WITH NO
SIGNIFICANT WEATHER AND/OR OBSTRUCTIONS TO VISIBILITY.

OHZ001>008-015>018-024>027-034-035-043-044-242200-
   NORTHWEST OHIO

CITY           SKY/WX    TMP DP  RH WIND       PRES   REMARKS
DEFIANCE       MOSUNNY   76  49  38 E8        30.07F
FINDLAY        MOSUNNY   74  49  41 NE12G18   30.07F
TOLEDO EXPRESS PTSUNNY   74  49  41 E6        30.07F
TOLEDO METCALF SUNNY     74  49  41 NE10      30.08F
LIMA           PTSUNNY   72  53  51 NE9       30.08F
$$

OHZ009>014-019>023-028>033-038-089-242200-
   NORTHEAST OHIO

CITY           SKY/WX    TMP DP  RH WIND       PRES   REMARKS
CLE-HOPKINS    MOSUNNY   70  50  49 N12G20    30.09F
CLE-LAKEFRONT  SUNNY     71  51  49 N10       30.06S
CUY CO. ARPT   MOSUNNY   70  52  52 N14       30.08S
LORAIN-ELYRIA  MOSUNNY   73  49  42 NE12      30.08S
ASHTABULA      SUNNY     70  50  49 N8        30.07S
AKRON-CANTON   MOSUNNY   74  50  42 N14       30.04S
WOOSTER        MOSUNNY   74  51  44 N17       30.06S
MANSFIELD      MOSUNNY   69  52  54 N12       30.08S
YOUNGSTOWN     MOSUNNY   72  50  45 N13       30.04S
$$

OHZ042-051>053-060>062-070>072-077>081-242200-
  SOUTHWEST OHIO

CITY           SKY/WX    TMP DP  RH WIND       PRES   REMARKS
CINC-COVINGTON MOSUNNY   74  52  46 N13       30.05F
CINC-LUNKEN    MOSUNNY   75  53  46 N6        30.04F
HAMILTON       PTSUNNY   77  55  46 N10       30.06F
DAYTON         MOSUNNY   75  54  47 NE10      30.07F
WRIGHT-PAT AFB SUNNY     75  54  47 N12       30.05F
DAYTON GENERAL MOSUNNY   74  56  53 NE10      30.05F
WILMINGTON     MOSUNNY   75  54  47 N10       30.04F
$$

OHZ036-037-039>041-045>050-054>059-063>069-073>076-082>088-242200-
  CENTRAL AND SOUTHEAST OHIO

CITY           SKY/WX    TMP DP  RH WIND       PRES   REMARKS
COLUMBUS       PTSUNNY   78  55  44 N10       30.02F
OSU AIRPORT    MOSUNNY   75  55  49 N15G21    30.04S
BOLTON FIELD   CLOUDY    73  57  56 N8        30.04S
RICKENBACK AFB PTSUNNY   77  49  37 N12       30.02S
NEWARK         PTSUNNY   75  56  51 N8        30.02S
MARION         SUNNY     73  50  44 N12G20    30.07S
LANCASTER      PTSUNNY   75  57  53 N8        30.03S
ZANESVILLE     SUNNY     76  52  43 N8        30.01F
NEW PHILLY     PTSUNNY   75  56  51 N12       30.02F
$$


USA.gov is the U.S. government's official web portal to all federal, state and local government web resources and services.